Voltar ao catálogo

SL-14 DEB

AtivoPO
NORAD 45331·DEBRIS·🇷🇺 Russia

Lançado Aug 15, 1991 de Plesetsk Cosmodrome

Loading…

Próximas Passagens (próximas 24 horas)

TLE

AtualizadoSource: Space-Track

Época: Sep 14, 2026, 06:16 UTC

1 45331U 91056BV  26257.26153264  .00000115  00000-0  33032-3 0  9999
2 45331  82.6605 196.5622 0263036 359.0475   1.0098 12.91932005306907

Acompanhe SL-14 DEB em tempo real com AllMySat

Download on the App Store